Lid_Strength_Index
0 -1 -2 -2 -2 -2 -2 -2 -2 -2 -2 -2 -2 -2 -2 -2 -2 -2 -2 -3 -3 -3 -2 -2 -2 -2 -2 -2 -2 -2 -2 -2 -2 -2 -2 -2 -2 -2 -2 -2 -3 -2 -2
-1 -1 -1 -2 -2 -2 -2 -2 -2 -2 -2 -2 -2 -2 -2 -2 -2 -3 -2 -3 -3 -2 -2 -2 -2 -2 -2 -2 -2 -2 -2 -2 -2 -2 -2 -3 -3 -2 -3 -2 -3 -2 -2
-0 -1 -1 -1 -2 -2 -2 -2 -2 -2 -2 -2 -2 -2 -2 -2 -3 -3 -3 -2 -2 -2 -2 -2 -2 -2 -2 -2 -2 -2 -2 -2 -2 -2 -2 -2 -2 -2 -2 -2 -2 -2 -2
-1 -1 -1 -1 -2 -2 -2 -2 -2 -2 -2 -2 -2 -2 -2 -2 -2 -2 -2 -3 -2 -2 -2 -2 -2 -2 -2 -2 -2 -2 -2 -2 -2 -2 -1 -1 -1 -2 -2 -2 -2 -2 -2
-1 -1 -1 -1 -2 -2 -2 -2 -2 -2 -2 -2 -2 -2 -2 -2 -2 -2 -2 -2 -2 -2 -2 -2 -2 -2 -2 -2 -2 -2 -2 -2 -2 -2 -2 -2 -2 -2 -2 -2 -2 -2 -2
-1 -1 -1 -1 -2 -2 -2 -2 -2 -2 -2 -2 -2 -2 -2 -1 -2 -2 -3 -2 -2 -2 -2 -2 -2 -2 -2 -2 -2 -2 -2 -2 -1 -1 -1 -2 -2 -2 -2 -2 -2 -2 -2
-0 -1 -1 -1 -2 -2 -2 -2 -2 -2 -2 -2 -2 -2 -1 -2 -2 -2 -2 -2 -2 -2 -2 -2 -2 -2 -2 -2 -2 -2 -2 -2 -1 -1 -1 -2 -2 -2 -2 -2 -2 -2 -2
-0 -1 -1 0 -1 -1 -2 -2 -2 -2 -2 -2 -2 -2 -2 -2 -2 -2 -2 -2 -2 -2 -2 -2 -2 -2 -2 -2 -2 -2 -2 -1 -1 -1 -1 -2 -2 -2 -2 -2 -1 -1 -1
-1 -1 -1 -1 -1 0 -1 -1 -2 -2 -2 -2 -2 -2 -2 -2 -2 -2 -2 -2 -2 -2 -2 -2 -2 -2 -2 -2 -2 -2 -2 -1 -1 -1 -1 -1 -2 -2 -2 -2 -1 -1 -1
-0 -0 -0 -1 -1 -1 -1 0 -1 -1 -1 -2 -1 -1 -1 -1 -1 -1 -1 -2 -2 -2 -2 -2 -2 -2 -2 -2 -2 -1 -1 -0 -1 -1 -1 -1 -2 -2 -2 -2 -2 -2 -2
1 0 -0 -0 -0 -1 -1 0 0 -0 -1 -1 -0 1 0 -1 -1 -1 -0 -1 -2 -2 -2 -2 -2 -2 -1 -1 -1 -0 0 -1 -1 -1 -1 -1 -2 -2 -2 -2 -2 -2 -2
2 1 1 0 0 -1 -1 -1 -1 -1 -1 -1 -1 -0 -0 -0 -1 -1 0 -0 -1 -1 -2 -2 -2 -0 -0 -1 -0 -0 -1 -1 -1 -1 -1 -1 -2 -2 -2 -2 -2 -2 -2
2 1 -0 0 0 -1 -0 -1 -1 -1 -1 -1 -1 -1 -1 -0 -1 -1 -1 -0 -1 1 -0 -0 -0 -1 -0 -0 -0 -0 -0 -1 -1 -1 -1 -0 -2 -2 -2 -2 -2 -2 -2
2 2 1 0 0 -0 -1 -1 -1 -1 -1 -1 -1 -1 -1 -0 0 0 0 0 -1 -1 -1 -1 -1 -0 -0 0 0 -0 -0 -0 -0 -1 -0 1 0 -1 -2 -2 -2 -2 -2
2 1 1 1 0 0 -0 -1 -1 -1 -1 -1 -1 -1 -1 -0 0 0 -0 -0 -1 -1 -1 -1 -0 0 0 0 0 0 0 0 0 0 0 2 1 -1 -2 -2 -2 -2 -2
1 1 1 1 1 0 -0 -0 -1 -1 -1 -1 -1 -1 -0 -1 -0 -0 -0 -0 -0 -0 -0 -0 0 1 1 1 1 1 0 0 1 0 -0 -0 1 0 -1 -2 -2 -2 -2
1 1 1 1 1 0 0 0 -0 -1 -1 -1 -0 -0 -0 0 0 0 -0 0 -0 0 0 1 1 1 1 1 0 1 1 0 0 0 0 0 0 1 0 -1 -1 -1 -1
1 1 0 -0 0 1 0 -0 -0 -0 -1 -1 -0 0 1 1 1 0 0 0 0 0 1 1 1 0 1 1 1 0 -0 -0 0 0 0 1 0 0 1 1 1 1 -0
2 2 1 0 0 -0 -0 -0 -0 -1 -1 -0 0 0 1 1 1 1 1 1 1 1 1 1 1 2 1 1 1 -0 -0 0 1 1 1 1 1 1 1 2 2 2 1
2 2 2 1 0 -0 1 1 0 0 0 -0 -0 -1 0 0 0 1 1 2 1 2 1 1 2 2 1 1 1 1 0 1 1 1 2 2 1 2 2 3 3 3 3
2 2 2 2 1 1 1 2 1 1 0 0 -0 -0 0 0 0 0 0 0 1 1 2 2 2 3 1 0 1 1 1 2 2 2 1 2 3 3 4 4 4 4 4
2 2 2 2 2 1 1 1 1 0 -0 -0 -0 0 0 0 0 0 0 0 1 1 2 2 2 2 2 1 2 2 4 3 2 2 3 2 4 5 6 5 5 5 4
3 2 2 2 2 1 1 2 2 1 1 1 1 1 1 0 0 0 0 0 0 1 1 1 1 2 2 2 2 3 5 6 5 3 4 4 6 8 7 6 6 6 5
3 3 2 2 2 2 1 2 2 2 2 1 1 -0 -0 0 0 0 -0 0 1 1 1 1 1 1 1 3 2 3 3 4 7 8 6 6 8 9 8 7 7 6 7
3 3 3 2 2 1 1 1 2 2 2 1 1 1 1 1 0 0 0 1 2 2 2 2 3 3 2 3 4 4 5 6 6 9 11 10 10 10 9 9 7 8 9
4 4 3 2 2 1 1 1 2 2 3 3 2 2 2 3 3 3 4 4 4 4 4 5 5 5 6 6 7 7 8 9 10 10 11 12 13 11 10 9 9 10 10